FW4092 Weather Reports


time (UTC)temp
C
wind
direction
speed
KPH
gust
KPH
rain 1hr
cm
rain 24hr
cm
rain mn
cm
humidity
%
barometer
mb
20260506031929 21 304 0.0 3.2 0.00 0.00 0.00 43 1010.2
20260506031423 22 304 1.6 4.8 0.00 0.00 0.00 42 1010.2
20260506030918 22 306 3.2 8.0 0.00 0.00 0.00 42 1010.2
20260506030648 22 306 3.2 8.0 0.00 0.00 0.00 41 1010.2
20260506030148 23 304 4.8 8.0 0.00 0.00 0.00 41 1010.1
20260506025401 23 304 4.8 11.3 0.00 0.00 0.00 40 1010.1
20260506024853 23 300 4.8 11.3 0.00 0.00 0.00 40 1010.1
20260506024351 23 324 3.2 11.3 0.00 0.00 0.00 39 1009.9
20260506024141 23 313 3.2 8.0 0.00 0.00 0.00 39 1009.9
20260506023636 23 325 4.8 11.3 0.00 0.00 0.00 38 1009.9
20260506023145 23 296 4.8 14.5 0.00 0.00 0.00 37 1009.8
20260506022422 24 342 3.2 9.7 0.00 0.00 0.00 33 1009.8
20260506022352 24 348 4.8 14.5 0.00 0.00 0.00 35 1009.8
20260506022156 24 344 3.2 12.9 0.00 0.00 0.00 34 1009.7
20260506021352 24 344 3.2 12.9 0.00 0.00 0.00 34 1009.7
20260506020852 24 38 4.8 14.5 0.00 0.00 0.00 34 1009.7
20260506020351 24 19 4.8 14.5 0.00 0.00 0.00 33 1009.7
20260506015847 24 54 4.8 12.9 0.00 0.00 0.00 33 1009.7
20260506015347 25 351 4.8 14.5 0.00 0.00 0.00 33 1009.6
20260506014847 25 355 3.2 14.5 0.00 0.00 0.00 33 1009.6
20260506014348 25 29 4.8 14.5 0.00 0.00 0.00 33 1009.6
20260506013848 25 32 6.4 17.7 0.00 0.00 0.00 32 1009.6
20260506013347 25 337 6.4 22.5 0.00 0.00 0.00 31 1009.6
20260506012851 26 344 6.4 22.5 0.00 0.00 0.00 32 1009.6
20260506012349 26 53 4.8 17.7 0.00 0.00 0.00 31 1009.4
20260506011850 26 46 4.8 17.7 0.00 0.00 0.00 32 1009.5
20260506011341 26 54 4.8 16.1 0.00 0.00 0.00 32 1009.5
20260506010836 26 19 6.4 16.1 0.00 0.00 0.00 32 1009.5
20260506010403 26 333 8.0 19.3 0.00 0.00 0.00 31 1009.3
20260506010348 26 346 9.7 19.3 0.00 0.00 0.00 32 1009.4
20260506005318 26 355 4.8 12.9 0.00 0.00 0.00 32 1009.3
20260506004811 26 51 4.8 14.5 0.00 0.00 0.00 32 1009.4
20260506004304 26 13 6.4 16.1 0.00 0.00 0.00 32 1009.4
20260506004040 26 351 6.4 16.1 0.00 0.00 0.00 31 1009.3
20260506003252 27 333 4.8 16.1 0.00 0.00 0.00 31 1009.2
20260506002746 27 355 4.8 16.1 0.00 0.00 0.00 31 1009.2
20260506002528 27 58 6.4 22.5 0.00 0.00 0.00 31 1009.2
20260506002007 27 42 6.4 22.5 0.00 0.00 0.00 30 1009.2
20260506001228 27 324 8.0 17.7 0.00 0.00 0.00 30 1009.2
20260506000722 27 43 8.0 20.9 0.00 0.00 0.00 30 1009.2
20260506000221 27 12 6.4 20.9 0.00 0.00 0.00 30 1009.1
20260505235710 27 24 8.0 17.7 0.00 0.00 0.00 30 1009.2
20260505235443 27 11 8.0 19.3 0.00 0.00 0.00 30 1009.3
20260505234659 27 347 6.4 19.3 0.00 0.00 0.00 30 1009.3
20260505234151 27 57 6.4 17.7 0.00 0.00 0.00 30 1009.3
20260505233645 27 67 6.4 17.7 0.00 0.00 0.00 30 1009.3
20260505233427 27 338 6.4 12.9 0.00 0.00 0.00 30 1009.2
20260505232923 27 10 8.0 25.7 0.00 0.00 0.00 31 1009.3
20260505232128 27 0 9.7 25.7 0.00 0.00 0.00 31 1009.3
20260505231639 27 341 6.4 19.3 0.00 0.00 0.00 30 1009.3
20260505231634 27 317 8.0 19.3 0.00 0.00 0.00 31 1009.3
20260505230612 27 355 8.0 17.7 0.00 0.00 0.00 29 1009.3
20260505230105 27 355 9.7 17.7 0.00 0.00 0.00 29 1009.3
20260505225833 27 355 8.0 17.7 0.00 0.00 0.00 29 1009.3
20260505225137 27 19 9.7 24.1 0.00 0.00 0.00 29 1009.4
20260505225123 27 275 8.0 17.7 0.00 0.00 0.00 28 1009.3
20260505224042 27 337 8.0 19.3 0.00 0.00 0.00 29 1009.3
20260505223807 27 17 6.4 19.3 0.00 0.00 0.00 29 1009.2
20260505223029 27 28 4.8 16.1 0.00 0.00 0.00 29 1009.3
20260505222522 27 27 4.8 12.9 0.00 0.00 0.00 30 1009.3
20260505222250 27 54 6.4 24.1 0.00 0.00 0.00 30 1009.3
20260505221511 27 24 6.4 24.1 0.00 0.00 0.00 29 1009.3
20260505221005 27 61 4.8 16.1 0.00 0.00 0.00 30 1009.4
20260505220504 27 25 6.4 16.1 0.00 0.00 0.00 30 1009.4
20260505220226 27 321 8.0 17.7 0.00 0.00 0.00 29 1009.4
20260505215504 27 313 6.4 17.7 0.00 0.00 0.00 30 1009.5
20260505215008 27 34 4.8 12.9 0.00 0.00 0.00 31 1009.4
20260505214505 27 42 4.8 16.1 0.00 0.00 0.00 30 1009.5
20260505214238 27 69 6.4 16.1 0.00 0.00 0.00 31 1009.6
20260505213504 27 20 6.4 16.1 0.00 0.00 0.00 31 1009.6
20260505213250 26 344 6.4 17.7 0.00 0.00 0.00 32 1009.6
20260505212504 26 11 8.0 22.5 0.00 0.00 0.00 30 1009.7
20260505212004 26 39 6.4 22.5 0.00 0.00 0.00 32 1009.7
20260505211523 26 350 4.8 17.7 0.00 0.00 0.00 33 1009.7
20260505211003 26 355 6.4 17.7 0.00 0.00 0.00 31 1009.8
20260505210500 26 31 6.4 17.7 0.00 0.00 0.00 31 1009.7
20260505210003 26 9 4.8 17.7 0.00 0.00 0.00 34 1009.8
20260505205500 26 36 6.4 20.9 0.00 0.00 0.00 33 1009.8
20260505205000 26 39 8.0 20.9 0.00 0.00 0.00 33 1009.9
20260505204459 26 349 6.4 17.7 0.00 0.00 0.00 35 1009.8
20260505204000 26 44 6.4 22.5 0.00 0.00 0.00 35 1009.9
20260505203500 25 35 6.4 22.5 0.00 0.00 0.00 35 1010.1
20260505203000 25 355 6.4 17.7 0.00 0.00 0.00 36 1010.1
20260505202747 25 61 6.4 17.7 0.00 0.00 0.00 36 1010.2
20260505202239 25 5 6.4 16.1 0.00 0.00 0.00 35 1010.2
20260505201500 25 331 6.4 17.7 0.00 0.00 0.00 35 1010.2
20260505201000 25 32 6.4 17.7 0.00 0.00 0.00 37 1010.2
20260505200500 25 40 6.4 16.1 0.00 0.00 0.00 36 1010.3
20260505200001 24 313 6.4 16.1 0.00 0.00 0.00 36 1010.3
20260505195500 24 322 6.4 16.1 0.00 0.00 0.00 36 1010.3
20260505195244 24 340 6.4 17.7 0.00 0.00 0.00 36 1010.3
20260505194500 24 49 8.0 17.7 0.00 0.00 0.00 37 1010.4
20260505194008 24 350 8.0 19.3 0.00 0.00 0.00 37 1010.3
20260505193736 24 338 8.0 19.3 0.00 0.00 0.00 37 1010.4
20260505193230 23 19 6.4 19.3 0.00 0.00 0.00 38 1010.3
20260505192501 23 336 6.4 19.3 0.00 0.00 0.00 36 1010.5
20260505192244 23 346 6.4 16.1 0.00 0.00 0.00 39 1010.5
20260505191459 23 34 4.8 16.1 0.00 0.00 0.00 38 1010.5
20260505190957 23 338 4.8 16.1 0.00 0.00 0.00 40 1010.6
20260505190450 23 325 6.4 16.1 0.00 0.00 0.00 39 1010.6
20260505185943 23 341 4.8 16.1 0.00 0.00 0.00 40 1010.6
20260505185437 23 30 6.4 16.1 0.00 0.00 0.00 40 1010.6
20260505184932 22 348 4.8 14.5 0.00 0.00 0.00 40 1010.6
20260505184426 22 349 4.8 12.9 0.00 0.00 0.00 42 1010.5
20260505184156 22 306 4.8 14.5 0.00 0.00 0.00 42 1010.6
20260505183413 22 355 4.8 14.5 0.00 0.00 0.00 43 1010.6
20260505182911 22 316 4.8 14.5 0.00 0.00 0.00 41 1010.6
20260505182401 21 309 6.4 14.5 0.00 0.00 0.00 41 1010.7
20260505181855 21 319 6.4 14.5 0.00 0.00 0.00 42 1010.6
20260505181629 21 300 6.4 14.5 0.00 0.00 0.00 42 1010.6
20260505180843 21 332 4.8 12.9 0.00 0.00 0.00 44 1010.6
20260505180337 21 303 4.8 11.3 0.00 0.00 0.00 44 1010.6
20260505175834 21 298 4.8 9.7 0.00 0.00 0.00 44 1010.5
20260505175325 21 66 3.2 9.7 0.00 0.00 0.00 45 1010.6
20260505175049 20 42 3.2 9.7 0.00 0.00 0.00 45 1010.6
20260505174313 20 348 3.2 9.7 0.00 0.00 0.00 45 1010.6
20260505173807 20 347 4.8 12.9 0.00 0.00 0.00 47 1010.6
20260505173301 20 294 4.8 12.9 0.00 0.00 0.00 47 1010.6
20260505172838 20 302 3.2 9.7 0.00 0.00 0.00 46 1010.7
20260505172553 20 317 3.2 9.7 0.00 0.00 0.00 48 1010.7
20260505171238 19 313 4.8 9.7 0.00 0.00 0.00 48 1010.6
20260505170731 19 265 4.8 8.0 0.00 0.00 0.00 48 1010.6
20260505170225 18 282 3.2 6.4 0.00 0.00 0.00 50 1010.6
20260505165722 18 22 1.6 6.4 0.00 0.00 0.00 51 1010.6
20260505165213 18 29 3.2 6.4 0.00 0.00 0.00 52 1010.6
20260505164941 18 91 3.2 8.0 0.00 0.00 0.00 52 1010.5
20260505164202 18 143 1.6 8.0 0.00 0.00 0.00 53 1010.5
20260505163656 17 150 1.6 8.0 0.00 0.00 0.00 54 1010.6
20260505163150 17 132 1.6 8.0 0.00 0.00 0.00 54 1010.7
20260505162946 17 155 3.2 8.0 0.00 0.00 0.00 57 1010.7
20260505162942 17 161 1.6 8.0 0.00 0.00 0.00 56 1010.7
20260505161631 17 188 1.6 8.0 0.00 0.00 0.00 58 1010.7
20260505161128 16 151 1.6 8.0 0.00 0.00 0.00 59 1010.8
20260505160619 16 181 1.6 8.0 0.00 0.00 0.00 60 1010.8
20260505160346 16 182 1.6 8.0 0.00 0.00 0.00 61 1010.9
20260505153038 14 128 1.6 6.4 0.00 0.00 0.00 64 1010.8
20260505152531 14 138 1.6 6.4 0.00 0.00 0.00 66 1010.8
20260505152301 13 185 1.6 4.8 0.00 0.00 0.00 68 1010.7
20260505151522 13 192 0.0 4.8 0.00 0.00 0.00 68 1010.7
20260505151019 12 126 0.0 0.0 0.00 0.00 0.00 69 1010.7
20260505150521 12 125 0.0 0.0 0.00 0.00 0.00 71 1010.7
20260505140521 8 129 0.0 0.0 0.00 0.00 0.00 82 1010.2
20260505140232 8 129 0.0 0.0 0.00 0.00 0.00 83 1010.3
20260505124412 7 129 0.0 3.2 0.00 0.00 0.00 80 1009.3
20260505123908 7 129 0.0 0.0 0.00 0.00 0.00 78 1009.2
20260505123400 7 129 0.0 0.0 0.00 0.00 0.00 77 1009.3
20260505122855 8 129 1.6 4.8 0.00 0.00 0.00 76 1009.3
20260505122348 8 129 3.2 4.8 0.00 0.00 0.00 75 1009.3
20260505121843 9 129 1.6 4.8 0.00 0.00 0.00 75 1009.3
20260505121336 9 201 0.0 1.6 0.00 0.00 0.00 77 1009.4
20260505120830 9 202 0.0 3.2 0.00 0.00 0.00 77 1009.2
20260505120324 9 202 0.0 3.2 0.00 0.00 0.00 77 1009.1
20260505115820 9 202 0.0 1.6 0.00 0.00 0.00 77 1009.1
20260505115313 9 202 0.0 3.2 0.00 0.00 0.00 77 1009.1
20260505114806 9 202 0.0 3.2 0.00 0.00 0.00 76 1009.2
20260505114300 9 202 0.0 1.6 0.00 0.00 0.00 76 1009.1
20260505113754 9 202 0.0 3.2 0.00 0.00 0.00 75 1009.1
20260505113249 9 202 0.0 3.2 0.00 0.00 0.00 74 1009.2
20260505112742 9 202 0.0 0.0 0.00 0.00 0.00 74 1009.2
20260505112236 10 202 0.0 0.0 0.00 0.00 0.00 74 1009.2
20260505111731 10 202 0.0 1.6 0.00 0.00 0.00 74 1009.1
20260505111224 10 202 0.0 1.6 0.00 0.00 0.00 73 1009.0
20260505110721 10 202 0.0 3.2 0.00 0.00 0.00 73 1009.0
20260505110219 10 202 1.6 4.8 0.00 0.00 0.00 72 1008.9
20260505102212 10 191 0.0 0.0 0.00 0.00 0.00 72 1008.7
20260505101713 10 190 0.0 0.0 0.00 0.00 0.00 72 1008.7
20260505101448 11 191 0.0 0.0 0.00 0.00 0.00 72 1008.7
20260505101215 11 191 0.0 0.0 0.00 0.00 0.00 72 1008.7
20260505101009 11 191 0.0 0.0 0.00 0.00 0.00 71 1008.7
20260505100211 11 190 0.0 0.0 0.00 0.00 0.00 71 1008.7
20260505095709 11 190 0.0 0.0 0.00 0.00 0.00 71 1008.7
20260505095209 11 191 0.0 0.0 0.00 0.00 0.00 70 1008.7
20260505094711 11 191 0.0 0.0 0.00 0.00 0.00 70 1008.9
20260505094208 11 190 0.0 0.0 0.00 0.00 0.00 69 1008.7
20260505093943 11 190 0.0 0.0 0.00 0.00 0.00 69 1008.9
20260505093202 11 191 0.0 0.0 0.00 0.00 0.00 69 1008.9
20260505092658 11 190 0.0 0.0 0.00 0.00 0.00 68 1008.9
20260505092201 11 190 0.0 0.0 0.00 0.00 0.00 68 1008.7
20260505091658 11 190 0.0 0.0 0.00 0.00 0.00 68 1008.9
20260505091200 12 190 0.0 0.0 0.00 0.00 0.00 67 1008.9
20260505090658 12 190 0.0 0.0 0.00 0.00 0.00 67 1008.7
20260505090158 12 190 0.0 0.0 0.00 0.00 0.00 67 1008.7
20260505085658 12 190 0.0 0.0 0.00 0.00 0.00 67 1008.7
20260505085200 12 190 0.0 0.0 0.00 0.00 0.00 67 1008.7
20260505084658 12 191 0.0 0.0 0.00 0.00 0.00 67 1008.6
20260505084159 12 190 0.0 0.0 0.00 0.00 0.00 67 1008.7
20260505083655 12 190 1.6 4.8 0.00 0.00 0.00 66 1008.7
20260505083213 12 191 1.6 4.8 0.00 0.00 0.00 66 1008.6
20260505082155 12 187 1.6 4.8 0.00 0.00 0.00 65 1008.5
20260505081655 12 181 0.0 0.0 0.00 0.00 0.00 65 1008.5
20260505081154 12 181 0.0 0.0 0.00 0.00 0.00 65 1008.5
20260505080654 12 181 0.0 0.0 0.00 0.00 0.00 65 1008.6
20260505080154 12 181 0.0 0.0 0.00 0.00 0.00 65 1008.5
20260505075655 12 181 0.0 0.0 0.00 0.00 0.00 65 1008.5
20260505075148 12 181 0.0 0.0 0.00 0.00 0.00 64 1008.6
20260505074643 12 181 0.0 0.0 0.00 0.00 0.00 63 1008.5
20260505074135 13 181 0.0 0.0 0.00 0.00 0.00 63 1008.5
20260505073629 13 181 0.0 0.0 0.00 0.00 0.00 63 1008.5
20260505073406 13 181 0.0 0.0 0.00 0.00 0.00 62 1008.5
20260505072624 13 181 0.0 0.0 0.00 0.00 0.00 62 1008.4
20260505072111 13 181 0.0 0.0 0.00 0.00 0.00 62 1008.5
20260505071606 13 181 1.6 4.8 0.00 0.00 0.00 61 1008.4
20260505071100 13 181 1.6 4.8 0.00 0.00 0.00 61 1008.4
20260505070553 13 181 1.6 4.8 0.00 0.00 0.00 61 1008.3
20260505070046 13 181 1.6 4.8 0.00 0.00 0.00 60 1008.3
20260505065542 13 180 3.2 6.4 0.00 0.00 0.00 60 1008.3
20260505065035 13 177 3.2 6.4 0.00 0.00 0.00 59 1008.3
20260505064811 13 163 1.6 6.4 0.00 0.00 0.00 59 1008.2
20260505064021 13 146 1.6 3.2 0.00 0.00 0.00 58 1008.2
20260505063545 14 146 0.0 3.2 0.00 0.00 0.00 57 1008.3
20260505063531 13 146 1.6 3.2 0.00 0.00 0.00 58 1008.3
20260505062503 14 146 0.0 1.6 0.00 0.00 0.00 55 1008.3
20260505061958 14 146 0.0 3.2 0.00 0.00 0.00 54 1008.3
20260505061453 14 146 1.6 6.4 0.00 0.00 0.00 54 1008.4
20260505060946 14 145 1.6 6.4 0.00 0.00 0.00 56 1008.4
20260505060439 14 263 1.6 4.8 0.00 0.00 0.00 55 1008.3
20260505055933 15 303 1.6 4.8 0.00 0.00 0.00 54 1008.2
20260505055428 15 5 0.0 3.2 0.00 0.00 0.00 53 1008.2
20260505054921 15 5 0.0 0.0 0.00 0.00 0.00 53 1008.2
20260505054645 15 5 0.0 1.6 0.00 0.00 0.00 52 1008.2
20260505053909 15 5 0.0 3.2 0.00 0.00 0.00 50 1008.2
20260505053403 15 5 1.6 3.2 0.00 0.00 0.00 45 1008.2
20260505053144 15 5 0.0 3.2 0.00 0.00 0.00 42 1008.3
20260505052351 16 9 0.0 1.6 0.00 0.00 0.00 41 1008.2
20260505052128 16 9 0.0 1.6 0.00 0.00 0.00 40 1008.3
20260505051340 16 9 0.0 1.6 0.00 0.00 0.00 39 1008.2
20260505050835 16 9 0.0 1.6 0.00 0.00 0.00 37 1008.1
20260505050604 17 9 0.0 3.2 0.00 0.00 0.00 37 1008.1
20260505041231 18 307 1.6 11.3 0.00 0.00 0.00 33 1007.4
20260505040721 18 348 1.6 3.2 0.00 0.00 0.00 34 1007.4
20260505040219 18 348 1.6 3.2 0.00 0.00 0.00 33 1007.2
20260505035709 18 348 0.0 3.2 0.00 0.00 0.00 32 1007.1
20260505035203 19 348 1.6 6.4 0.00 0.00 0.00 32 1007.0
20260505034658 20 348 1.6 6.4 0.00 0.00 0.00 31 1006.9
20260505034151 20 348 1.6 6.4 0.00 0.00 0.00 30 1006.8
20260505033645 20 342 3.2 9.7 0.00 0.00 0.00 30 1006.7
20260505033139 20 355 4.8 12.9 0.00 0.00 0.00 29 1006.6
20260505032637 21 342 4.8 14.5 0.00 0.00 0.00 29 1006.6